| time (UTC) | temp C | wind direction | speed KPH | gust KPH | rain 1hr cm | rain 24hr cm | rain mn cm | humidity % | barometer mb |
| 20260904104331 | 16 | 205 | 3.2 | 16.1 | 0.28 | 1.35 | 1.47 | 96 | 1002.1 |
| 20260904103331 | 17 | 268 | 3.2 | 14.5 | 0.23 | 1.35 | 1.45 | 96 | 1002.1 |
| 20260904102332 | 16 | 255 | 6.4 | 12.9 | 0.18 | 1.35 | 1.37 | 95 | 1002.5 |
| 20260904101331 | 16 | 261 | 4.8 | 14.5 | 0.15 | 1.37 | 1.35 | 95 | 1002.5 |
| 20260904100331 | 17 | 219 | 4.8 | 14.5 | 0.08 | 1.37 | 1.27 | 94 | 1002.4 |
| 20260904095333 | 17 | 262 | 1.6 | 11.3 | 0.05 | 1.32 | 1.22 | 94 | 1002.4 |
| 20260904094808 | 17 | 262 | 6.4 | 12.9 | 0.03 | 1.32 | 1.19 | 94 | 1002.4 |
| 20260904093332 | 17 | 223 | 8.0 | 12.9 | 0.05 | 1.35 | 1.19 | 94 | 1002.3 |
| 20260904092333 | 17 | 244 | 1.6 | 12.9 | 0.05 | 1.40 | 1.19 | 94 | 1002.8 |
| 20260904091333 | 17 | 226 | 3.2 | 12.9 | 0.05 | 1.40 | 1.17 | 95 | 1003.0 |
| 20260904090331 | 16 | 250 | 6.4 | 17.7 | 0.08 | 1.42 | 1.17 | 94 | 1003.5 |
| 20260904085333 | 16 | 242 | 3.2 | 12.9 | 0.10 | 1.35 | 1.17 | 95 | 1003.7 |
| 20260904084332 | 16 | 262 | 3.2 | 17.7 | 0.10 | 1.35 | 1.17 | 94 | 1003.5 |
| 20260904083334 | 16 | 279 | 8.0 | 16.1 | 0.08 | 1.37 | 1.17 | 94 | 1003.6 |
| 20260904082333 | 16 | 275 | 8.0 | 17.7 | 0.05 | 1.37 | 1.14 | 94 | 1003.7 |
| 20260904081331 | 16 | 215 | 6.4 | 16.1 | 0.05 | 1.37 | 1.12 | 95 | 1003.8 |
| 20260904080334 | 16 | 204 | 4.8 | 25.7 | 0.05 | 1.52 | 1.09 | 94 | 1004.0 |
| 20260904075332 | 16 | 236 | 8.0 | 25.7 | 0.03 | 1.47 | 1.09 | 94 | 1004.0 |
| 20260904074331 | 16 | 244 | 8.0 | 17.7 | 0.03 | 1.50 | 1.09 | 94 | 1004.2 |
| 20260904073332 | 16 | 254 | 6.4 | 16.1 | 0.05 | 1.50 | 1.09 | 93 | 1004.4 |
| 20260904072332 | 16 | 272 | 4.8 | 17.7 | 0.05 | 1.50 | 1.09 | 93 | 1004.3 |
| 20260904071333 | 16 | 242 | 6.4 | 16.1 | 0.05 | 1.52 | 1.07 | 93 | 1004.4 |
| 20260904070335 | 16 | 199 | 9.7 | 22.5 | 0.05 | 1.52 | 1.07 | 92 | 1004.5 |
| 20260904065332 | 16 | 252 | 11.3 | 25.7 | 0.10 | 1.45 | 1.07 | 92 | 1004.8 |
| 20260904064346 | 16 | 238 | 9.7 | 29.0 | 0.18 | 1.45 | 1.07 | 92 | 1004.9 |
| 20260904063332 | 16 | 250 | 16.1 | 29.0 | 0.28 | 1.50 | 1.04 | 98 | 1005.0 |
| 20260904061331 | 15 | 203 | 8.0 | 11.3 | 0.51 | 1.55 | 0.99 | 97 | 1005.3 |
| 20260904060331 | 15 | 191 | 4.8 | 8.0 | 0.53 | 1.55 | 0.99 | 97 | 1005.3 |
| 20260904055332 | 15 | 203 | 4.8 | 12.9 | 0.58 | 0.99 | 0.94 | 97 | 1005.3 |
| 20260904054332 | 15 | 188 | 4.8 | 11.3 | 0.61 | 0.99 | 0.86 | 97 | 1005.4 |
| 20260904053332 | 15 | 175 | 6.4 | 14.5 | 0.58 | 0.99 | 0.74 | 97 | 1005.6 |
| 20260904052819 | 15 | 200 | 9.7 | 16.1 | 0.46 | 0.99 | 0.61 | 96 | 1005.7 |
| 20260904051332 | 15 | 170 | 6.4 | 14.5 | 0.36 | 0.99 | 0.48 | 96 | 1006.1 |
| 20260904050332 | 15 | 194 | 6.4 | 11.3 | 0.33 | 0.99 | 0.43 | 96 | 1006.1 |
| 20260904045332 | 16 | 192 | 6.4 | 12.9 | 0.25 | 0.71 | 0.38 | 96 | 1006.5 |
| 20260904044332 | 16 | 205 | 6.4 | 11.3 | 0.15 | 0.71 | 0.23 | 96 | 1006.3 |
| 20260904043804 | 16 | 200 | 1.6 | 11.3 | 0.10 | 0.71 | 0.18 | 96 | 1006.4 |
| 20260904042333 | 16 | 187 | 8.0 | 16.1 | 0.08 | 0.71 | 0.15 | 96 | 1006.7 |
| 20260904041333 | 16 | 180 | 6.4 | 12.9 | 0.08 | 0.71 | 0.15 | 96 | 1006.8 |
| 20260904040331 | 16 | 193 | 0.0 | 4.8 | 0.10 | 0.71 | 0.15 | 95 | 1007.0 |
| 20260904035332 | 16 | 193 | 3.2 | 6.4 | 0.08 | 0.61 | 0.13 | 95 | 1007.4 |
| 20260904034331 | 16 | 216 | 1.6 | 6.4 | 0.10 | 0.61 | 0.10 | 95 | 1008.0 |
| 20260904033332 | 16 | 216 | 3.2 | 6.4 | 0.05 | 0.61 | 0.08 | 94 | 1008.1 |
| 20260904032818 | 16 | 236 | 3.2 | 4.8 | 0.05 | 0.61 | 0.08 | 94 | 1008.2 |
| 20260904031331 | 16 | 236 | 6.4 | 12.9 | 0.05 | 0.61 | 0.05 | 94 | 1008.3 |
| 20260904030333 | 16 | 204 | 4.8 | 12.9 | 0.03 | 0.61 | 0.05 | 94 | 1008.4 |
| 20260904025332 | 16 | 171 | 6.4 | 14.5 | 0.03 | 0.61 | 0.05 | 94 | 1008.4 |
| 20260904024333 | 17 | 222 | 6.4 | 16.1 | 0.00 | 0.61 | 0.03 | 94 | 1008.6 |
| 20260904023805 | 16 | 206 | 6.4 | 14.5 | 0.00 | 0.61 | 0.03 | 94 | 1009.0 |
| 20260904022338 | 16 | 209 | 4.8 | 14.5 | 0.00 | 0.61 | 0.03 | 94 | 1009.0 |
| 20260904021331 | 16 | 215 | 6.4 | 16.1 | 0.00 | 0.61 | 0.03 | 94 | 1008.9 |
| 20260904020333 | 16 | 203 | 6.4 | 14.5 | 0.00 | 0.61 | 0.03 | 94 | 1009.1 |
| 20260904015331 | 16 | 205 | 6.4 | 12.9 | 0.00 | 0.61 | 0.03 | 94 | 1009.1 |
| 20260904014331 | 16 | 220 | 4.8 | 17.7 | 0.00 | 0.61 | 0.03 | 94 | 1009.2 |
| 20260904013333 | 16 | 229 | 6.4 | 12.9 | 0.00 | 0.61 | 0.03 | 94 | 1009.5 |
| 20260904012333 | 16 | 217 | 6.4 | 16.1 | 0.03 | 0.61 | 0.03 | 94 | 1009.4 |
| 20260904011331 | 16 | 196 | 3.2 | 14.5 | 0.03 | 0.61 | 0.03 | 93 | 1009.7 |
| 20260904010338 | 16 | 226 | 6.4 | 14.5 | 0.03 | 0.61 | 0.03 | 93 | 1009.9 |
| 20260904005332 | 16 | 222 | 6.4 | 17.7 | 0.03 | 0.58 | 0.03 | 93 | 1009.8 |
| 20260904004818 | 16 | 230 | 4.8 | 11.3 | 0.03 | 0.58 | 0.03 | 93 | 1009.9 |
| 20260904003333 | 16 | 273 | 3.2 | 12.9 | 0.03 | 0.58 | 0.03 | 93 | 1009.9 |
| 20260904002331 | 16 | 237 | 3.2 | 12.9 | 0.00 | 0.58 | 0.00 | 92 | 1010.1 |
| 20260904001334 | 16 | 260 | 4.8 | 12.9 | 0.00 | 0.58 | 0.00 | 92 | 1010.2 |
| 20260904000333 | 16 | 247 | 6.4 | 16.1 | 0.00 | 0.58 | 0.00 | 92 | 1010.3 |
| 20260903235332 | 16 | 251 | 6.4 | 14.5 | 0.00 | 0.58 | 0.00 | 91 | 1010.3 |
| 20260903234815 | 16 | 254 | 11.3 | 19.3 | 0.00 | 0.58 | 0.00 | 91 | 1010.4 |
| 20260903233523 | 16 | 244 | 6.4 | 17.7 | 0.00 | 0.58 | 0.00 | 90 | 1010.4 |
| 20260903232331 | 16 | 216 | 8.0 | 11.3 | 0.00 | 0.58 | 0.00 | 91 | 1010.5 |
| 20260903231824 | 16 | 220 | 4.8 | 16.1 | 0.00 | 0.58 | 0.00 | 90 | 1010.5 |
| 20260903230331 | 16 | 198 | 6.4 | 12.9 | 0.00 | 0.58 | 0.00 | 90 | 1010.7 |
| 20260903225334 | 16 | 232 | 6.4 | 16.1 | 0.00 | 0.58 | 0.00 | 90 | 1010.7 |
| 20260903224331 | 16 | 215 | 6.4 | 14.5 | 0.00 | 0.58 | 0.00 | 89 | 1010.7 |
| 20260903223334 | 16 | 266 | 4.8 | 14.5 | 0.00 | 0.58 | 0.00 | 89 | 1010.8 |
| 20260903222332 | 16 | 196 | 6.4 | 19.3 | 0.00 | 0.58 | 0.00 | 87 | 1011.0 |
| 20260903221332 | 16 | 208 | 8.0 | 17.7 | 0.00 | 0.58 | 0.00 | 87 | 1011.0 |
| 20260903220333 | 16 | 281 | 6.4 | 16.1 | 0.00 | 0.58 | 0.00 | 87 | 1010.8 |
| 20260903215347 | 16 | 221 | 8.0 | 19.3 | 0.00 | 0.58 | 0.58 | 87 | 1010.9 |
| 20260903214341 | 16 | 240 | 6.4 | 16.1 | 0.00 | 0.58 | 0.58 | 88 | 1011.1 |
| 20260903213338 | 16 | 196 | 8.0 | 17.7 | 0.00 | 0.58 | 0.58 | 89 | 1011.1 |
| 20260903212818 | 16 | 213 | 8.0 | 22.5 | 0.00 | 0.58 | 0.58 | 89 | 1011.1 |
| 20260903211836 | 17 | 261 | 14.5 | 33.8 | 0.00 | 0.58 | 0.58 | 88 | 1011.3 |
| 20260903210334 | 17 | 242 | 8.0 | 19.3 | 0.00 | 0.58 | 0.58 | 89 | 1011.2 |
| 20260903205333 | 17 | 271 | 6.4 | 17.7 | 0.00 | 0.58 | 0.58 | 89 | 1011.2 |
| 20260903204333 | 17 | 260 | 4.8 | 16.1 | 0.00 | 0.58 | 0.58 | 90 | 1011.3 |
| 20260903203833 | 17 | 266 | 6.4 | 17.7 | 0.00 | 0.58 | 0.58 | 90 | 1011.2 |
| 20260903202333 | 17 | 222 | 4.8 | 20.9 | 0.00 | 0.58 | 0.58 | 90 | 1011.2 |
| 20260903200335 | 17 | 238 | 9.7 | 19.3 | 0.00 | 0.58 | 0.58 | 90 | 1011.3 |
| 20260903195332 | 17 | 215 | 8.0 | 20.9 | 0.00 | 0.58 | 0.58 | 89 | 1011.2 |
| 20260903194334 | 17 | 281 | 9.7 | 19.3 | 0.00 | 0.58 | 0.58 | 89 | 1011.3 |
| 20260903193334 | 17 | 279 | 4.8 | 25.7 | 0.00 | 0.58 | 0.58 | 89 | 1011.2 |
| 20260903192817 | 17 | 261 | 16.1 | 30.6 | 0.00 | 0.58 | 0.58 | 89 | 1011.3 |
| 20260903191332 | 17 | 268 | 14.5 | 27.4 | 0.00 | 0.58 | 0.58 | 90 | 1011.3 |
| 20260903190333 | 17 | 248 | 12.9 | 30.6 | 0.00 | 0.58 | 0.58 | 90 | 1011.2 |
| 20260903185334 | 17 | 266 | 8.0 | 20.9 | 0.03 | 0.58 | 0.58 | 91 | 1011.2 |
| 20260903184332 | 17 | 242 | 9.7 | 17.7 | 0.05 | 0.58 | 0.58 | 91 | 1011.2 |
| 20260903183333 | 17 | 255 | 9.7 | 22.5 | 0.05 | 0.58 | 0.58 | 91 | 1011.2 |
| 20260903182334 | 17 | 238 | 9.7 | 22.5 | 0.05 | 0.58 | 0.58 | 91 | 1011.1 |
| 20260903181332 | 17 | 244 | 8.0 | 22.5 | 0.05 | 0.58 | 0.58 | 91 | 1011.1 |
| 20260903180332 | 17 | 263 | 9.7 | 20.9 | 0.05 | 0.58 | 0.58 | 91 | 1011.2 |
| 20260903175817 | 17 | 208 | 8.0 | 19.3 | 0.03 | 0.53 | 0.56 | 90 | 1010.9 |
| 20260903174333 | 18 | 233 | 12.9 | 22.5 | 0.00 | 0.53 | 0.53 | 90 | 1011.0 |
| 20260903173333 | 18 | 242 | 9.7 | 22.5 | 0.00 | 0.53 | 0.53 | 90 | 1010.9 |
| 20260903172332 | 18 | 250 | 8.0 | 20.9 | 0.03 | 0.53 | 0.53 | 89 | 1010.9 |
| 20260903171332 | 18 | 244 | 12.9 | 25.7 | 0.03 | 0.53 | 0.53 | 89 | 1010.7 |
| 20260903170334 | 18 | 283 | 11.3 | 27.4 | 0.03 | 0.53 | 0.53 | 90 | 1010.7 |
| 20260903165333 | 18 | 218 | 9.7 | 27.4 | 0.03 | 0.51 | 0.53 | 91 | 1010.5 |
| 20260903164332 | 18 | 297 | 12.9 | 22.5 | 0.03 | 0.51 | 0.53 | 90 | 1010.5 |
| 20260903163334 | 18 | 310 | 14.5 | 33.8 | 0.03 | 0.51 | 0.53 | 88 | 1010.6 |
| 20260903162332 | 18 | 323 | 19.3 | 32.2 | 0.00 | 0.51 | 0.51 | 87 | 1010.4 |
| 20260903161333 | 19 | 217 | 9.7 | 22.5 | 0.00 | 0.51 | 0.51 | 87 | 1010.3 |
| 20260903160333 | 19 | 248 | 12.9 | 25.7 | 0.00 | 0.51 | 0.51 | 86 | 1010.2 |
| 20260903155333 | 19 | 257 | 14.5 | 30.6 | 0.00 | 0.51 | 0.51 | 86 | 1010.1 |
| 20260903154335 | 20 | 266 | 11.3 | 25.7 | 0.00 | 0.51 | 0.51 | 85 | 1010.3 |
| 20260903153332 | 20 | 257 | 12.9 | 30.6 | 0.00 | 0.51 | 0.51 | 85 | 1010.3 |
| 20260903152332 | 20 | 259 | 12.9 | 30.6 | 0.00 | 0.51 | 0.51 | 85 | 1009.9 |
| 20260903151332 | 20 | 313 | 16.1 | 33.8 | 0.00 | 0.51 | 0.51 | 85 | 1009.8 |
| 20260903145334 | 20 | 257 | 12.9 | 33.8 | 0.03 | 0.51 | 0.51 | 86 | 1009.9 |
| 20260903144334 | 20 | 219 | 17.7 | 29.0 | 0.03 | 0.51 | 0.51 | 88 | 1009.8 |
| 20260903143816 | 19 | 13 | 12.9 | 25.7 | 0.03 | 0.51 | 0.51 | 90 | 1009.9 |
| 20260903142812 | 19 | 329 | 9.7 | 27.4 | 0.03 | 0.51 | 0.51 | 89 | 1009.8 |
| 20260903141333 | 19 | 248 | 14.5 | 32.2 | 0.03 | 0.51 | 0.51 | 90 | 1009.8 |
| 20260903140333 | 19 | 195 | 17.7 | 32.2 | 0.03 | 0.51 | 0.51 | 90 | 1009.8 |
| 20260903135332 | 19 | 170 | 11.3 | 27.4 | 0.00 | 0.51 | 0.51 | 90 | 1009.7 |
| 20260903134331 | 20 | 231 | 11.3 | 29.0 | 0.00 | 0.51 | 0.51 | 90 | 1009.7 |
| 20260903133333 | 20 | 269 | 11.3 | 32.2 | 0.00 | 0.51 | 0.51 | 89 | 1009.8 |
| 20260903132332 | 20 | 258 | 9.7 | 29.0 | 0.00 | 0.51 | 0.51 | 90 | 1009.7 |
| 20260903131334 | 20 | 256 | 14.5 | 32.2 | 0.00 | 0.51 | 0.51 | 88 | 1009.8 |
| 20260903130333 | 20 | 212 | 14.5 | 35.4 | 0.00 | 0.51 | 0.51 | 87 | 1009.6 |
| 20260903125334 | 20 | 236 | 17.7 | 30.6 | 0.00 | 0.51 | 0.51 | 88 | 1009.7 |
| 20260903124333 | 20 | 252 | 16.1 | 30.6 | 0.00 | 0.51 | 0.51 | 90 | 1009.7 |
| 20260903123332 | 20 | 264 | 12.9 | 30.6 | 0.00 | 0.51 | 0.51 | 91 | 1009.5 |
| 20260903122333 | 19 | 240 | 11.3 | 38.6 | 0.00 | 0.51 | 0.51 | 93 | 1009.6 |
| 20260903121809 | 19 | 209 | 12.9 | 22.5 | 0.00 | 0.51 | 0.51 | 93 | 1009.6 |
| 20260903120334 | 18 | 234 | 12.9 | 22.5 | 0.00 | 0.51 | 0.51 | 95 | 1009.6 |
| 20260903115333 | 18 | 209 | 9.7 | 22.5 | 0.00 | 0.51 | 0.51 | 94 | 1009.7 |
| 20260903114331 | 18 | 218 | 12.9 | 27.4 | 0.00 | 0.51 | 0.51 | 94 | 1009.8 |
| 20260903113331 | 18 | 0 | 8.0 | 29.0 | 0.00 | 0.51 | 0.51 | 95 | 1009.8 |
| 20260903112819 | 18 | 192 | 14.5 | 29.0 | 0.03 | 0.51 | 0.51 | 96 | 1009.7 |
| 20260903111334 | 17 | 228 | 17.7 | 30.6 | 0.05 | 0.51 | 0.51 | 96 | 1009.8 |
| 20260903110332 | 17 | 198 | 11.3 | 22.5 | 0.05 | 0.51 | 0.51 | 96 | 1009.8 |
| 20260903105331 | 17 | 160 | 11.3 | 19.3 | 0.05 | 0.56 | 0.51 | 96 | 1009.9 |